Location: Rye
(30.7294°N, 96.4902°W)
Time: 17:01:57
(UTC+00:00)

Tiros 1 despin weight - Pass Details

Date: 06 December 2025
Orbit: 557 x 596 km, 48.2° (Epoch: 10 January)

Event Time Altitude Azimuth Distance (km) Brightness Sun altitude
Rises 02:02:35 0° 244° (WSW) 2,766 ? -33.3°
Reaches altitude 10° 02:04:56 10° 250° (WSW) 1,863 ? -33.8°
Enters shadow 02:06:17 19° 258° (WSW) 1,374 ? -34.1°
